Key West, FL

7:24 PM EDT on September 21, 2017 (GMT -0400)
Key West International

Weather History for KEYW - November, 2010

Change the Weather History Date:

Saturday, November 6, 2010

  Actual Average Record
Temperature  
Mean Temperature 66 °F 77 °F  
Max Temperature 68 °F 81 °F 88 °F (1948)
Min Temperature 63 °F 73 °F 58 °F (1910)
Degree Days  
Heating Degree Days 0 0  
Month to date heating degree days 0 0  
Since 1 July heating degree days 0 0  
Cooling Degree Days 1 12  
Month to date cooling degree days 63 75  
Year to date cooling degree days 4131 4283  
Growing Degree Days 15 (Base 50)    
Moisture  
Dew Point 50 °F    
Average Humidity 56    
Maximum Humidity 63    
Minimum Humidity 48    
Precipitation  
Precipitation 0.00 in 0.08 in 3.00 in (1919)
Month to date precipitation 1.99 0.58  
Year to date precipitation 37.81 35.89  
Snow  
Snow 0.00 in - - ()
Month to date snowfall 0.0  
Since 1 July snowfall 0.0  
Since 1 September snowfall 0.0  
Snow Depth 0.00 in    
Sea Level Pressure  
Sea Level Pressure 30.13 in    
Wind  
Wind Speed 13 mph (NNE)    
Max Wind Speed 22 mph    
Max Gust Speed 26 mph    
Visibility 10 miles    
Events      
T = Trace of Precipitation, MM = Missing Value Source: NWS Daily Summary

Daily Weather History Graph

Daily Weather History Graph

Search for Another Location

Airport or City:

Trip Planner

Search our weather history database for the weather conditions in past years. The results will help you decide how hot, cold, wet, or windy it might be!

Date:

Astronomy

Nov. 06, 2010 Rise Set
Actual Time 7:36 AM EDT 6:44 PM EDT
Civil Twilight 7:13 AM EDT 7:07 PM EDT
Nautical Twilight 6:46 AM EDT 7:34 PM EDT
Astronomical Twilight 6:19 AM EDT 8:01 PM EDT
Moon 8:01 AM EDT (11/6) 7:03 PM EDT (11/6)
Length of Visible Light 11h 54m
Length of Day
11h 07m
New Moon, 0% of the Moon is Illuminated
Nov 6
New Moon
Nov 13
First Quarter
Nov 21
Full
Nov 28
Last Quarter
Dec 5
New

Hourly Weather History & Observations

Time (EDT) Temp. Dew Point Humidity Pressure Visibility Wind Dir Wind Speed Gust Speed Precip Events Conditions
12:53 AM 66.9 °F 52.0 °F 59% 30.05 in 10.0 mi NE 10.4 mph - N/A   Overcast
1:53 AM 66.9 °F 51.1 °F 57% 30.05 in 10.0 mi NE 6.9 mph - N/A   Overcast
2:53 AM 66.0 °F 52.0 °F 60% 30.04 in 10.0 mi NE 10.4 mph - N/A   Overcast
3:53 AM 66.0 °F 52.0 °F 60% 30.04 in 10.0 mi NE 10.4 mph - N/A   Overcast
4:53 AM 64.9 °F 51.1 °F 61% 30.06 in 10.0 mi NNE 13.8 mph - N/A   Overcast
5:53 AM 64.9 °F 51.1 °F 61% 30.07 in 10.0 mi NNE 12.7 mph - N/A   Overcast
6:53 AM 64.0 °F 50.0 °F 60% 30.08 in 10.0 mi NNE 10.4 mph - N/A   Overcast
7:53 AM 64.0 °F 50.0 °F 60% 30.11 in 10.0 mi NNE 10.4 mph - N/A   Overcast
8:53 AM 64.0 °F 50.0 °F 60% 30.13 in 10.0 mi NNE 12.7 mph 18.4 mph N/A   Mostly Cloudy
9:53 AM 66.0 °F 48.9 °F 54% 30.15 in 10.0 mi NNE 15.0 mph - N/A   Mostly Cloudy
10:53 AM 64.9 °F 48.0 °F 54% 30.18 in 10.0 mi North 15.0 mph 24.2 mph N/A   Overcast
11:53 AM 66.9 °F 50.0 °F 54% 30.18 in 10.0 mi North 12.7 mph 23.0 mph N/A   Scattered Clouds
12:53 PM 66.0 °F 50.0 °F 56% 30.17 in 10.0 mi North 18.4 mph 24.2 mph N/A   Clear
1:53 PM 66.0 °F 50.0 °F 56% 30.15 in 10.0 mi North 16.1 mph 25.3 mph N/A   Clear
2:53 PM 66.9 °F 51.1 °F 57% 30.14 in 10.0 mi North 15.0 mph 21.9 mph N/A   Partly Cloudy
3:53 PM 64.4 °F 51.8 °F 64% 30.14 in 10.0 mi North 11.5 mph 21.9 mph N/A   Overcast
4:53 PM 66.0 °F 50.0 °F 56% 30.13 in 10.0 mi North 18.4 mph 24.2 mph N/A   Overcast
5:53 PM 64.9 °F 51.1 °F 61% 30.14 in 10.0 mi North 15.0 mph 20.7 mph N/A   Mostly Cloudy
6:53 PM 64.9 °F 50.0 °F 58% 30.15 in 10.0 mi North 13.8 mph 24.2 mph N/A   Mostly Cloudy
7:53 PM 64.0 °F 48.0 °F 56% 30.17 in 10.0 mi North 13.8 mph 20.7 mph N/A   Partly Cloudy
8:53 PM 64.0 °F 48.0 °F 56% 30.18 in 10.0 mi North 16.1 mph 23.0 mph N/A   Partly Cloudy
9:53 PM 64.9 °F 46.9 °F 52% 30.19 in 10.0 mi North 10.4 mph 19.6 mph N/A   Partly Cloudy
10:53 PM 64.0 °F 45.0 °F 50% 30.21 in 10.0 mi NNE 11.5 mph - N/A   Clear
11:53 PM 63.0 °F 43.0 °F 48% 30.22 in 10.0 mi NNE 12.7 mph - N/A   Clear